Location: Baller�as
(41.9020°N, 0.1554°W)
Time: 23:20:22
(UTC+00:00)

Cosmos 1605 Rocket - Pass Details

Date: 10 August 2020
Orbit: 946 x 1005 km, 82.9° (Epoch: 22 September)

Event Time Altitude Azimuth Distance (km) Brightness Sun altitude
Exits shadow 21:10:27 23° 179° (S) 1,893 5.1 -20.0°
Maximum altitude 21:14:25 80° 96° (E) 970 3.8 -20.5°
Drops below altitude 10° 21:20:31 10° 10° (N) 2,676 6.8 -21.3°
Sets 21:23:01 0° 9° (N) 3,624 7.5 -21.7°
